Time,TemperatureF,DewpointF,PressureIn,WindDirection,WindDirectionDegrees,WindSpeedMPH,WindSpeedGustMPH,Humidity,HourlyPrecipIn,Conditions,Clouds,dailyrainin,SoftwareType,DateUTC
2013-07-26 00:01:00,64.7,60.1,30.05,NE,39,0.0,1.0,85,0.00,,BKN033,0.00,VWS V14.01,2013-07-26 04:01:00,
2013-07-26 00:02:00,64.7,60.1,30.05,NE,39,0.0,1.0,85,0.00,,BKN033,0.00,VWS V14.01,2013-07-26 04:02:00,
2013-07-26 00:07:00,64.8,60.2,30.05,NE,39,0.0,1.0,85,0.00,,BKN033,0.00,VWS V14.01,2013-07-26 04:07:00,
2013-07-26 00:12:00,64.8,60.2,30.05,NE,39,0.0,1.0,85,0.00,,BKN033,0.00,VWS V14.01,2013-07-26 04:12:00,
2013-07-26 00:17:00,64.9,60.3,30.05,NE,39,0.0,1.0,85,0.00,,BKN055,0.00,VWS V14.01,2013-07-26 04:17:00,
2013-07-26 00:22:00,64.9,60.3,30.04,NE,39,0.0,1.0,85,0.00,,BKN055,0.00,VWS V14.01,2013-07-26 04:22:00,
2013-07-26 00:27:00,64.9,60.3,30.04,NE,34,0.0,1.0,85,0.00,,BKN055,0.00,VWS V14.01,2013-07-26 04:27:00,
2013-07-26 00:32:00,64.8,60.2,30.04,NE,34,0.0,1.0,85,0.00,,BKN055,0.00,VWS V14.01,2013-07-26 04:32:00,
2013-07-26 00:37:00,64.8,60.2,30.04,NE,34,0.0,1.0,85,0.00,,BKN055,0.00,VWS V14.01,2013-07-26 04:37:00,
2013-07-26 00:42:00,64.8,60.2,30.04,NE,34,0.0,1.0,85,0.00,,BKN055,0.00,VWS V14.01,2013-07-26 04:42:00,
2013-07-26 00:47:00,64.9,60.3,30.04,NE,34,0.0,1.0,85,0.00,,BKN055,0.00,VWS V14.01,2013-07-26 04:47:00,
2013-07-26 00:52:00,65.0,60.4,30.03,NE,34,1.0,1.0,85,0.00,,BKN055,0.00,VWS V14.01,2013-07-26 04:52:00,
2013-07-26 00:57:00,64.9,60.3,30.03,NE,34,0.0,1.0,85,0.00,,BKN055,0.00,VWS V14.01,2013-07-26 04:57:00,
2013-07-26 01:02:00,64.8,60.2,30.03,NE,34,0.0,0.0,85,0.00,,SCT075,0.00,VWS V14.01,2013-07-26 05:02:00,
2013-07-26 01:07:00,64.8,60.2,30.03,NE,34,0.0,0.0,85,0.00,,SCT075,0.00,VWS V14.01,2013-07-26 05:07:00,
2013-07-26 01:12:00,64.9,60.3,30.03,NE,34,0.0,0.0,85,0.00,,SCT075,0.00,VWS V14.01,2013-07-26 05:12:00,
2013-07-26 01:17:00,64.9,60.0,30.03,NE,34,0.0,0.0,84,0.00,,SCT075,0.00,VWS V14.01,2013-07-26 05:17:00,
2013-07-26 01:22:00,64.9,60.3,30.03,NE,34,0.0,0.0,85,0.00,,SCT075,0.00,VWS V14.01,2013-07-26 05:22:00,
2013-07-26 01:27:00,64.8,60.2,30.04,NE,34,0.0,0.0,85,0.00,,SCT075,0.00,VWS V14.01,2013-07-26 05:27:00,
2013-07-26 01:32:00,64.9,60.3,30.04,NE,34,0.0,0.0,85,0.00,,SCT075,0.00,VWS V14.01,2013-07-26 05:32:00,
2013-07-26 01:37:00,64.8,60.2,30.04,NE,34,0.0,0.0,85,0.00,,SCT075,0.00,VWS V14.01,2013-07-26 05:37:00,
2013-07-26 01:42:00,64.7,60.1,30.03,NE,34,0.0,0.0,85,0.00,,SCT075,0.00,VWS V14.01,2013-07-26 05:42:00,
2013-07-26 01:47:00,64.6,60.3,30.04,NE,34,0.0,0.0,86,0.00,,SCT075,0.00,VWS V14.01,2013-07-26 05:47:00,
2013-07-26 01:52:00,64.5,60.2,30.04,NE,34,0.0,0.0,86,0.00,,SCT075,0.00,VWS V14.01,2013-07-26 05:52:00,
2013-07-26 01:57:00,64.5,60.2,30.03,NE,34,0.0,0.0,86,0.00,,SCT075,0.00,VWS V14.01,2013-07-26 05:57:00,
2013-07-26 02:02:00,64.4,60.1,30.03,NE,34,0.0,0.0,86,0.00,,BKN044,0.00,VWS V14.01,2013-07-26 06:02:00,
2013-07-26 02:07:00,64.4,60.1,30.02,NE,34,0.0,0.0,86,0.00,,BKN044,0.00,VWS V14.01,2013-07-26 06:07:00,
2013-07-26 02:12:00,64.5,60.2,30.02,NNE,21,0.0,2.0,86,0.00,,BKN044,0.00,VWS V14.01,2013-07-26 06:12:00,
2013-07-26 02:17:00,64.5,60.2,30.02,NW,321,0.0,2.0,86,0.00,,BKN044,0.00,VWS V14.01,2013-07-26 06:17:00,
2013-07-26 02:22:00,64.5,60.2,30.02,WNW,299,0.0,3.0,86,0.00,,BKN044,0.00,VWS V14.01,2013-07-26 06:22:00,
2013-07-26 02:27:00,64.4,60.1,30.01,WNW,303,0.0,3.0,86,0.00,,BKN044,0.00,VWS V14.01,2013-07-26 06:27:00,
2013-07-26 02:32:00,64.4,60.1,30.02,NW,305,0.0,1.0,86,0.00,,BKN044,0.00,VWS V14.01,2013-07-26 06:32:00,
2013-07-26 02:37:00,64.4,60.1,30.02,NW,305,0.0,1.0,86,0.00,,BKN044,0.00,VWS V14.01,2013-07-26 06:37:00,
2013-07-26 02:42:00,64.4,60.1,30.02,NW,306,0.0,1.0,86,0.00,,BKN044,0.00,VWS V14.01,2013-07-26 06:42:00,
2013-07-26 02:47:00,64.3,60.3,30.02,NW,306,0.0,1.0,87,0.00,,BKN044,0.00,VWS V14.01,2013-07-26 06:47:00,
2013-07-26 02:52:00,64.3,60.3,30.02,NW,306,0.0,1.0,87,0.00,,BKN044,0.00,VWS V14.01,2013-07-26 06:52:00,
2013-07-26 02:57:00,64.3,60.3,30.02,NW,306,0.0,1.0,87,0.00,,BKN044,0.00,VWS V14.01,2013-07-26 06:57:00,
2013-07-26 03:03:00,64.3,60.3,30.02,NW,306,0.0,0.0,87,0.00,,FEW044,0.00,VWS V14.01,2013-07-26 07:03:00,
2013-07-26 03:08:00,64.3,60.3,30.02,NW,306,0.0,1.0,87,0.00,,FEW044,0.00,VWS V14.01,2013-07-26 07:08:00,
2013-07-26 03:13:00,64.2,60.3,30.02,NW,306,0.0,1.0,87,0.00,,FEW044,0.00,VWS V14.01,2013-07-26 07:13:00,
2013-07-26 03:18:00,64.1,60.2,30.02,NW,306,0.0,1.0,87,0.00,,FEW044,0.00,VWS V14.01,2013-07-26 07:18:00,
2013-07-26 03:23:00,64.0,60.1,30.02,NW,306,0.0,2.0,87,0.00,,FEW044,0.00,VWS V14.01,2013-07-26 07:23:00,
2013-07-26 03:28:00,63.9,60.3,30.02,NW,306,0.0,2.0,88,0.00,,FEW044,0.00,VWS V14.01,2013-07-26 07:28:00,
2013-07-26 03:33:00,63.8,60.2,30.02,NW,306,0.0,0.0,88,0.00,,FEW044,0.00,VWS V14.01,2013-07-26 07:33:00,
2013-07-26 03:38:00,63.8,60.2,30.02,NW,311,0.0,0.0,88,0.00,,FEW044,0.00,VWS V14.01,2013-07-26 07:38:00,
2013-07-26 03:43:00,63.7,60.4,30.02,NW,309,0.0,1.0,89,0.00,,FEW044,0.00,VWS V14.01,2013-07-26 07:43:00,
2013-07-26 03:48:00,63.7,60.1,30.02,NW,309,0.0,1.0,88,0.00,,FEW044,0.00,VWS V14.01,2013-07-26 07:48:00,
2013-07-26 03:53:00,63.7,60.4,30.02,NW,309,0.0,1.0,89,0.00,,FEW044,0.00,VWS V14.01,2013-07-26 07:53:00,
2013-07-26 03:58:00,63.8,60.2,30.02,NW,310,1.0,2.0,88,0.00,,FEW044,0.00,VWS V14.01,2013-07-26 07:58:00,
2013-07-26 04:03:00,64.0,60.1,30.02,NNW,347,0.0,3.0,87,0.00,,BKN050,0.00,VWS V14.01,2013-07-26 08:03:00,
2013-07-26 04:08:00,64.1,60.2,30.02,NNW,332,0.0,3.0,87,0.00,,BKN050,0.00,VWS V14.01,2013-07-26 08:08:00,
2013-07-26 04:13:00,64.3,60.0,30.02,NE,34,0.0,3.0,86,0.00,,BKN050,0.00,VWS V14.01,2013-07-26 08:13:00,
2013-07-26 04:18:00,64.6,60.3,30.02,NW,317,0.0,3.0,86,0.00,,BKN050,0.00,VWS V14.01,2013-07-26 08:18:00,
2013-07-26 04:23:00,64.9,60.3,30.02,NW,315,2.0,3.0,85,0.00,,BKN050,0.00,VWS V14.01,2013-07-26 08:23:00,
2013-07-26 04:28:00,65.0,60.4,30.02,NW,316,0.0,3.0,85,0.00,,BKN050,0.00,VWS V14.01,2013-07-26 08:28:00,
2013-07-26 04:33:00,65.0,60.4,30.02,NW,315,0.0,2.0,85,0.00,,BKN050,0.00,VWS V14.01,2013-07-26 08:33:00,
2013-07-26 04:38:00,65.1,60.2,30.02,NW,313,0.0,4.0,84,0.00,,BKN050,0.00,VWS V14.01,2013-07-26 08:38:00,
2013-07-26 04:43:00,65.1,60.2,30.01,North,350,0.0,4.0,84,0.00,,BKN050,0.00,VWS V14.01,2013-07-26 08:43:00,
2013-07-26 04:48:00,65.2,60.2,30.01,NNW,332,1.0,4.0,84,0.00,,BKN050,0.00,VWS V14.01,2013-07-26 08:48:00,
2013-07-26 04:53:00,65.2,60.2,30.02,NE,40,1.0,5.0,84,0.00,,BKN050,0.00,VWS V14.01,2013-07-26 08:53:00,
2013-07-26 04:58:00,65.2,60.2,30.02,North,11,0.0,5.0,84,0.00,,BKN050,0.00,VWS V14.01,2013-07-26 08:58:00,
2013-07-26 05:03:00,65.3,60.3,30.02,North,355,0.0,3.0,84,0.00,,OVC034,0.00,VWS V14.01,2013-07-26 09:03:00,
2013-07-26 05:08:00,65.3,60.3,30.02,NW,324,0.0,3.0,84,0.00,,OVC034,0.00,VWS V14.01,2013-07-26 09:08:00,
2013-07-26 05:13:00,65.3,60.3,30.02,NW,325,0.0,3.0,84,0.00,,OVC034,0.00,VWS V14.01,2013-07-26 09:13:00,
2013-07-26 05:18:00,65.4,60.5,30.03,NW,326,0.0,3.0,84,0.00,,OVC034,0.00,VWS V14.01,2013-07-26 09:18:00,
2013-07-26 05:23:00,65.6,60.6,30.03,NNE,20,0.0,3.0,84,0.00,,OVC034,0.00,VWS V14.01,2013-07-26 09:23:00,
2013-07-26 05:28:00,65.5,60.5,30.03,NNE,18,0.0,3.0,84,0.00,,OVC034,0.00,VWS V14.01,2013-07-26 09:28:00,
2013-07-26 05:33:00,65.5,60.5,30.03,NNE,17,0.0,1.0,84,0.00,,OVC034,0.00,VWS V14.01,2013-07-26 09:33:00,
2013-07-26 05:38:00,65.4,60.5,30.03,West,279,0.0,2.0,84,0.00,,OVC034,0.00,VWS V14.01,2013-07-26 09:38:00,
2013-07-26 05:43:00,65.5,60.5,30.03,West,279,0.0,2.0,84,0.00,,OVC034,0.00,VWS V14.01,2013-07-26 09:43:00,
2013-07-26 05:48:00,65.5,60.9,30.03,West,279,1.0,2.0,85,0.00,,OVC034,0.00,VWS V14.01,2013-07-26 09:48:00,
2013-07-26 05:53:00,65.6,61.0,30.03,West,279,1.0,2.0,85,0.00,,OVC034,0.00,VWS V14.01,2013-07-26 09:53:00,
2013-07-26 05:58:00,65.5,60.9,30.03,West,281,0.0,2.0,85,0.00,,OVC034,0.00,VWS V14.01,2013-07-26 09:58:00,
2013-07-26 06:03:00,65.5,60.9,30.03,NW,307,1.0,2.0,85,0.00,,OVC044,0.00,VWS V14.01,2013-07-26 10:03:00,
2013-07-26 06:08:00,65.4,60.8,30.03,NW,312,1.0,2.0,85,0.00,,OVC044,0.00,VWS V14.01,2013-07-26 10:08:00,
2013-07-26 06:13:00,65.3,60.7,30.03,WNW,300,3.0,3.0,85,0.00,,OVC044,0.00,VWS V14.01,2013-07-26 10:13:00,
2013-07-26 06:18:00,65.2,60.9,30.03,NNW,331,0.0,3.0,86,0.00,,OVC044,0.00,VWS V14.01,2013-07-26 10:18:00,
2013-07-26 06:23:00,65.2,60.9,30.03,NNW,331,0.0,3.0,86,0.00,,OVC044,0.00,VWS V14.01,2013-07-26 10:23:00,
2013-07-26 06:28:00,65.2,60.9,30.03,NNW,331,0.0,3.0,86,0.00,,OVC044,0.00,VWS V14.01,2013-07-26 10:28:00,
2013-07-26 06:33:00,65.2,60.9,30.03,NNW,331,1.0,2.0,86,0.00,,OVC044,0.00,VWS V14.01,2013-07-26 10:33:00,
2013-07-26 06:38:00,65.2,60.9,30.03,NNW,331,0.0,2.0,86,0.00,,OVC044,0.00,VWS V14.01,2013-07-26 10:38:00,
2013-07-26 06:43:00,65.3,61.0,30.03,NNW,331,0.0,2.0,86,0.00,,OVC044,0.00,VWS V14.01,2013-07-26 10:43:00,
2013-07-26 06:48:00,65.4,61.1,30.03,NW,321,2.0,3.0,86,0.00,,OVC044,0.00,VWS V14.01,2013-07-26 10:48:00,
2013-07-26 06:53:00,65.5,61.2,30.03,NW,321,1.0,3.0,86,0.00,,OVC044,0.00,VWS V14.01,2013-07-26 10:53:00,
2013-07-26 06:58:00,65.6,61.3,30.03,NW,317,0.0,3.0,86,0.00,,OVC044,0.00,VWS V14.01,2013-07-26 10:58:00,
2013-07-26 07:03:00,65.7,61.4,30.03,NW,318,0.0,4.0,86,0.00,,OVC055,0.00,VWS V14.01,2013-07-26 11:03:00,
2013-07-26 07:08:00,65.7,61.4,30.03,North,360,0.0,4.0,86,0.00,,OVC055,0.00,VWS V14.01,2013-07-26 11:08:00,
2013-07-26 07:13:00,65.7,61.4,30.04,North,355,0.0,4.0,86,0.00,,OVC055,0.00,VWS V14.01,2013-07-26 11:13:00,
2013-07-26 07:18:00,65.7,61.4,30.04,North,355,0.0,4.0,86,0.00,,OVC055,0.00,VWS V14.01,2013-07-26 11:18:00,
2013-07-26 07:23:00,65.7,61.7,30.04,North,355,0.0,4.0,87,0.00,,OVC055,0.00,VWS V14.01,2013-07-26 11:23:00,
2013-07-26 07:28:00,65.8,61.5,30.04,North,355,1.0,4.0,86,0.00,,OVC055,0.00,VWS V14.01,2013-07-26 11:28:00,
2013-07-26 07:33:00,66.0,61.7,30.04,North,355,1.0,1.0,86,0.00,,OVC055,0.00,VWS V14.01,2013-07-26 11:33:00,
2013-07-26 07:38:00,66.0,61.7,30.04,North,355,0.0,1.0,86,0.00,,OVC055,0.00,VWS V14.01,2013-07-26 11:38:00,
2013-07-26 07:43:00,66.2,61.9,30.04,NNW,334,3.0,3.0,86,0.00,,OVC055,0.00,VWS V14.01,2013-07-26 11:43:00,
2013-07-26 07:48:00,66.4,62.1,30.04,NW,310,0.0,3.0,86,0.00,,OVC055,0.00,VWS V14.01,2013-07-26 11:48:00,
2013-07-26 07:53:00,66.6,62.0,30.05,NW,312,0.0,3.0,85,0.00,,OVC055,0.00,VWS V14.01,2013-07-26 11:53:00,
2013-07-26 07:58:00,66.8,61.8,30.05,NW,313,0.0,5.0,84,0.00,,OVC055,0.00,VWS V14.01,2013-07-26 11:58:00,
2013-07-26 08:03:00,67.0,62.0,30.05,NNW,327,0.0,5.0,84,0.00,,OVC060,0.00,VWS V14.01,2013-07-26 12:03:00,
2013-07-26 08:08:00,67.3,62.0,30.05,NW,314,0.0,5.0,83,0.00,,OVC060,0.00,VWS V14.01,2013-07-26 12:08:00,
2013-07-26 08:13:00,67.5,61.8,30.05,NW,315,5.0,5.0,82,0.00,,OVC060,0.00,VWS V14.01,2013-07-26 12:13:00,
2013-07-26 08:18:00,67.7,62.0,30.05,West,269,2.0,5.0,82,0.00,,OVC060,0.00,VWS V14.01,2013-07-26 12:18:00,
2013-07-26 08:19:00,67.7,62.0,30.05,NNW,331,3.0,5.0,82,0.00,,OVC060,0.00,VWS V14.01,2013-07-26 12:19:00,
2013-07-26 08:24:00,67.8,61.8,30.05,NW,307,4.0,6.0,81,0.00,,OVC060,0.00,VWS V14.01,2013-07-26 12:24:00,
2013-07-26 08:29:00,68.1,62.1,30.05,NNE,19,2.0,6.0,81,0.00,,OVC060,0.00,VWS V14.01,2013-07-26 12:29:00,
2013-07-26 08:34:00,68.5,62.1,30.05,NW,326,1.0,7.0,80,0.00,,OVC060,0.00,VWS V14.01,2013-07-26 12:34:00,
2013-07-26 08:39:00,68.7,61.9,30.05,NNW,336,5.0,7.0,79,0.00,,OVC060,0.00,VWS V14.01,2013-07-26 12:39:00,
2013-07-26 08:44:00,69.1,61.6,30.05,ENE,59,1.0,7.0,77,0.00,,OVC060,0.00,VWS V14.01,2013-07-26 12:44:00,
2013-07-26 08:49:00,69.4,61.9,30.05,WNW,302,3.0,8.0,77,0.00,,OVC060,0.00,VWS V14.01,2013-07-26 12:49:00,
2013-07-26 08:54:00,69.6,61.7,30.05,WNW,286,0.0,8.0,76,0.00,,OVC060,0.00,VWS V14.01,2013-07-26 12:54:00,
2013-07-26 08:59:00,69.6,61.7,30.06,NE,34,1.0,8.0,76,0.00,,OVC060,0.00,VWS V14.01,2013-07-26 12:59:00,
2013-07-26 09:04:00,69.7,62.2,30.06,WNW,297,0.0,5.0,77,0.00,,CLR,0.00,VWS V14.01,2013-07-26 13:04:00,
2013-07-26 09:09:00,69.7,62.2,30.06,WNW,294,3.0,5.0,77,0.00,,CLR,0.00,VWS V14.01,2013-07-26 13:09:00,
2013-07-26 09:14:00,69.9,62.0,30.06,WNW,287,3.0,5.0,76,0.00,,CLR,0.00,VWS V14.01,2013-07-26 13:14:00,
2013-07-26 09:19:00,70.0,62.5,30.06,NW,313,1.0,5.0,77,0.00,,CLR,0.00,VWS V14.01,2013-07-26 13:19:00,
2013-07-26 09:24:00,70.2,62.3,30.06,NNW,343,1.0,5.0,76,0.00,,CLR,0.00,VWS V14.01,2013-07-26 13:24:00,
2013-07-26 09:29:00,70.6,61.9,30.06,WNW,294,1.0,2.0,74,0.00,,CLR,0.00,VWS V14.01,2013-07-26 13:29:00,
2013-07-26 09:34:00,70.9,62.6,30.06,East,84,0.0,4.0,75,0.00,,CLR,0.00,VWS V14.01,2013-07-26 13:34:00,
2013-07-26 09:39:00,71.1,62.0,30.06,North,11,5.0,7.0,73,0.00,,CLR,0.00,VWS V14.01,2013-07-26 13:39:00,
2013-07-26 09:44:00,71.3,62.2,30.06,WNW,294,4.0,7.0,73,0.00,,CLR,0.00,VWS V14.01,2013-07-26 13:44:00,
2013-07-26 09:49:00,71.7,62.6,30.06,WNW,302,3.0,7.0,73,0.00,,CLR,0.00,VWS V14.01,2013-07-26 13:49:00,
2013-07-26 09:54:00,72.4,62.9,30.06,NNW,329,2.0,7.0,72,0.00,,CLR,0.00,VWS V14.01,2013-07-26 13:54:00,
2013-07-26 09:59:00,72.9,63.0,30.07,NW,311,4.0,5.0,71,0.00,,OVC065,0.00,VWS V14.01,2013-07-26 13:59:00,
2013-07-26 10:04:00,73.0,63.0,30.07,WNW,292,0.0,6.0,71,0.00,,OVC065,0.00,VWS V14.01,2013-07-26 14:04:00,
2013-07-26 10:09:00,73.1,63.2,30.07,NW,307,2.0,6.0,71,0.00,,OVC065,0.00,VWS V14.01,2013-07-26 14:09:00,
2013-07-26 10:14:00,73.3,62.9,30.07,NW,315,7.0,7.0,70,0.00,,OVC065,0.00,VWS V14.01,2013-07-26 14:14:00,
2013-07-26 10:19:00,73.3,62.9,30.07,NW,319,2.0,7.0,70,0.00,,OVC065,0.00,VWS V14.01,2013-07-26 14:19:00,
2013-07-26 10:24:00,73.5,62.7,30.07,NW,319,4.0,7.0,69,0.00,,OVC065,0.00,VWS V14.01,2013-07-26 14:24:00,
2013-07-26 10:29:00,73.7,63.3,30.07,NNW,340,1.0,2.0,70,0.00,,OVC065,0.00,VWS V14.01,2013-07-26 14:29:00,
2013-07-26 10:34:00,74.1,62.9,30.07,NNW,331,6.0,6.0,68,0.00,,OVC065,0.00,VWS V14.01,2013-07-26 14:34:00,
2013-07-26 10:40:00,74.5,63.3,30.07,North,360,1.0,6.0,68,0.00,,OVC065,0.00,VWS V14.01,2013-07-26 14:40:00,
2013-07-26 10:45:00,75.3,64.4,30.07,NNW,331,1.0,6.0,69,0.00,,OVC065,0.00,VWS V14.01,2013-07-26 14:45:00,
2013-07-26 10:50:00,76.5,63.4,30.07,NW,308,0.0,6.0,64,0.00,,OVC065,0.00,VWS V14.01,2013-07-26 14:50:00,
2013-07-26 10:55:00,77.1,64.4,30.06,WNW,301,2.0,6.0,65,0.00,,OVC065,0.00,VWS V14.01,2013-07-26 14:55:00,
2013-07-26 11:00:00,77.4,64.3,30.06,NW,315,0.0,2.0,64,0.00,,OVC070,0.00,VWS V14.01,2013-07-26 15:00:00,
2013-07-26 11:05:00,77.7,63.7,30.06,NNW,343,0.0,6.0,62,0.00,,OVC070,0.00,VWS V14.01,2013-07-26 15:05:00,
2013-07-26 11:10:00,78.0,64.4,30.06,NNE,16,2.0,6.0,63,0.00,,OVC070,0.00,VWS V14.01,2013-07-26 15:10:00,
2013-07-26 11:15:00,77.5,63.9,30.06,West,270,0.0,6.0,63,0.00,,OVC070,0.00,VWS V14.01,2013-07-26 15:15:00,
2013-07-26 11:20:00,77.5,63.5,30.06,NW,321,3.0,6.0,62,0.00,,OVC070,0.00,VWS V14.01,2013-07-26 15:20:00,
2013-07-26 11:25:00,77.4,63.8,30.06,NNE,12,2.0,6.0,63,0.00,,OVC070,0.00,VWS V14.01,2013-07-26 15:25:00,
2013-07-26 11:30:00,77.6,64.0,30.06,NNW,329,0.0,3.0,63,0.00,,OVC070,0.00,VWS V14.01,2013-07-26 15:30:00,
2013-07-26 11:35:00,78.4,63.8,30.06,NW,323,3.0,5.0,61,0.00,,OVC070,0.00,VWS V14.01,2013-07-26 15:35:00,
2013-07-26 11:40:00,78.9,63.4,30.06,WNW,288,0.0,5.0,59,0.00,,OVC070,0.00,VWS V14.01,2013-07-26 15:40:00,
2013-07-26 11:45:00,79.2,64.1,30.06,NNW,348,6.0,7.0,60,0.00,,OVC070,0.00,VWS V14.01,2013-07-26 15:45:00,
2013-07-26 11:50:00,79.6,64.0,30.06,NNE,28,1.0,7.0,59,0.00,,OVC070,0.00,VWS V14.01,2013-07-26 15:50:00,
2013-07-26 11:55:00,80.2,64.6,30.06,NW,322,3.0,7.0,59,0.00,,OVC070,0.00,VWS V14.01,2013-07-26 15:55:00,
2013-07-26 12:00:00,80.5,63.9,30.06,NW,321,1.0,2.0,57,0.00,,OVC070,0.00,VWS V14.01,2013-07-26 16:00:00,
2013-07-26 12:05:00,80.4,63.8,30.06,East,84,0.0,3.0,57,0.00,,OVC070,0.00,VWS V14.01,2013-07-26 16:05:00,
2013-07-26 12:10:00,80.2,63.6,30.06,NE,39,0.0,3.0,57,0.00,,OVC070,0.00,VWS V14.01,2013-07-26 16:10:00,
2013-07-26 12:15:00,80.5,63.9,30.06,WNW,303,2.0,8.0,57,0.00,,OVC070,0.00,VWS V14.01,2013-07-26 16:15:00,
2013-07-26 12:20:00,80.8,63.1,30.06,North,11,0.0,8.0,55,0.00,,OVC070,0.00,VWS V14.01,2013-07-26 16:20:00,
2013-07-26 12:25:00,81.0,63.8,30.06,WNW,299,0.0,8.0,56,0.00,,OVC070,0.00,VWS V14.01,2013-07-26 16:25:00,
2013-07-26 12:30:00,81.0,63.8,30.06,NW,321,0.0,2.0,56,0.00,,OVC070,0.00,VWS V14.01,2013-07-26 16:30:00,
2013-07-26 12:35:00,80.9,63.2,30.06,West,267,1.0,5.0,55,0.00,,OVC070,0.00,VWS V14.01,2013-07-26 16:35:00,
2013-07-26 12:40:00,81.1,63.4,30.05,ENE,65,2.0,7.0,55,0.00,,OVC070,0.00,VWS V14.01,2013-07-26 16:40:00,
2013-07-26 12:45:00,81.2,63.0,30.05,SW,220,1.0,7.0,54,0.00,,OVC070,0.00,VWS V14.01,2013-07-26 16:45:00,
2013-07-26 12:50:00,81.8,63.5,30.05,North,5,1.0,7.0,54,0.00,,OVC070,0.00,VWS V14.01,2013-07-26 16:50:00,
2013-07-26 12:55:00,82.2,63.9,30.05,NNW,329,2.0,7.0,54,0.00,,OVC070,0.00,VWS V14.01,2013-07-26 16:55:00,
2013-07-26 13:00:00,82.5,63.7,30.05,North,9,2.0,3.0,53,0.00,,BKN039,0.00,VWS V14.01,2013-07-26 17:00:00,
2013-07-26 13:05:00,83.0,64.1,30.05,NE,55,2.0,3.0,53,0.00,,BKN039,0.00,VWS V14.01,2013-07-26 17:05:00,
2013-07-26 13:10:00,82.9,63.5,30.05,WSW,237,2.0,3.0,52,0.00,,BKN039,0.00,VWS V14.01,2013-07-26 17:10:00,
2013-07-26 13:15:00,82.8,63.4,30.05,NW,325,2.0,4.0,52,0.00,,BKN039,0.00,VWS V14.01,2013-07-26 17:15:00,
2013-07-26 13:20:00,83.1,63.1,30.04,NNE,13,2.0,5.0,51,0.00,,BKN039,0.00,VWS V14.01,2013-07-26 17:20:00,
2013-07-26 13:25:00,83.3,62.7,30.04,NNW,329,3.0,5.0,50,0.00,,BKN039,0.00,VWS V14.01,2013-07-26 17:25:00,
2013-07-26 13:30:00,83.2,62.7,30.04,NW,316,3.0,8.0,50,0.00,,BKN039,0.00,VWS V14.01,2013-07-26 17:30:00,
2013-07-26 13:35:00,83.1,62.5,30.04,SSW,208,2.0,8.0,50,0.00,,BKN039,0.00,VWS V14.01,2013-07-26 17:35:00,
2013-07-26 13:40:00,83.2,62.7,30.04,SSW,210,1.0,8.0,50,0.00,,BKN039,0.00,VWS V14.01,2013-07-26 17:40:00,
2013-07-26 13:45:00,82.6,62.7,30.04,NW,323,3.0,8.0,51,0.00,,BKN039,0.00,VWS V14.01,2013-07-26 17:45:00,
2013-07-26 13:50:00,82.7,62.8,30.04,NW,313,5.0,8.0,51,0.00,,BKN039,0.00,VWS V14.01,2013-07-26 17:50:00,
2013-07-26 13:55:00,83.2,62.7,30.04,NNW,333,3.0,8.0,50,0.00,,BKN039,0.00,VWS V14.01,2013-07-26 17:55:00,
2013-07-26 14:00:00,83.8,62.6,30.03,NNW,342,5.0,5.0,49,0.00,,BKN039,0.00,VWS V14.01,2013-07-26 18:00:00,
2013-07-26 14:05:00,83.8,62.6,30.03,NNW,342,5.0,5.0,49,0.00,,BKN039,0.00,VWS V14.01,2013-07-26 18:05:00,
2013-07-26 14:10:00,83.8,62.6,30.03,NNW,342,5.0,5.0,49,0.00,,BKN039,0.00,VWS V14.01,2013-07-26 18:10:00,
2013-07-26 14:15:00,83.8,62.6,30.03,NNW,342,5.0,5.0,49,0.00,,BKN039,0.00,VWS V14.01,2013-07-26 18:15:00,
2013-07-26 14:20:00,83.8,62.6,30.03,NNW,342,5.0,5.0,49,0.00,,BKN039,0.00,VWS V14.01,2013-07-26 18:20:00,
2013-07-26 14:25:00,83.8,62.6,30.03,NNW,342,5.0,5.0,49,0.00,,BKN039,0.00,VWS V14.01,2013-07-26 18:25:00,
2013-07-26 14:30:00,83.8,62.6,30.03,NNW,342,5.0,5.0,49,0.00,,BKN039,0.00,VWS V14.01,2013-07-26 18:30:00,
2013-07-26 14:35:00,83.8,62.6,30.03,NNW,342,5.0,5.0,49,0.00,,BKN039,0.00,VWS V14.01,2013-07-26 18:35:00,
2013-07-26 14:40:00,83.8,62.6,30.03,NNW,342,5.0,5.0,49,0.00,,BKN039,0.00,VWS V14.01,2013-07-26 18:40:00,
2013-07-26 14:45:00,83.8,62.6,30.03,NNW,342,5.0,5.0,49,0.00,,BKN039,0.00,VWS V14.01,2013-07-26 18:45:00,
2013-07-26 14:50:00,83.8,62.6,30.03,NNW,342,5.0,5.0,49,0.00,,BKN039,0.00,VWS V14.01,2013-07-26 18:50:00,
2013-07-26 14:55:00,83.8,62.6,30.03,NNW,342,5.0,5.0,49,0.00,,BKN039,0.00,VWS V14.01,2013-07-26 18:55:00,
2013-07-26 15:00:00,83.8,62.6,30.03,NNW,342,5.0,5.0,49,0.00,,BKN039,0.00,VWS V14.01,2013-07-26 19:00:00,
2013-07-26 15:05:00,83.8,62.6,30.03,NNW,342,5.0,5.0,49,0.00,,BKN039,0.00,VWS V14.01,2013-07-26 19:05:00,
2013-07-26 15:10:00,83.8,62.6,30.03,NNW,342,5.0,5.0,49,0.00,,BKN039,0.00,VWS V14.01,2013-07-26 19:10:00,
2013-07-26 15:15:00,83.8,62.6,30.03,NNW,342,5.0,5.0,49,0.00,,BKN039,0.00,VWS V14.01,2013-07-26 19:15:00,
2013-07-26 15:20:00,83.8,62.6,30.03,NNW,342,5.0,5.0,49,0.00,,BKN039,0.00,VWS V14.01,2013-07-26 19:20:00,
2013-07-26 15:26:00,83.8,62.6,30.03,NNW,342,5.0,5.0,49,0.00,,BKN039,0.00,VWS V14.01,2013-07-26 19:26:00,
2013-07-26 15:31:00,83.8,62.6,30.03,NNW,342,5.0,5.0,49,0.00,,BKN039,0.00,VWS V14.01,2013-07-26 19:31:00,
2013-07-26 15:36:00,83.8,62.6,30.03,NNW,342,5.0,5.0,49,0.00,,BKN039,0.00,VWS V14.01,2013-07-26 19:36:00,
2013-07-26 15:41:00,83.8,62.6,30.03,NNW,342,5.0,5.0,49,0.00,,BKN039,0.00,VWS V14.01,2013-07-26 19:41:00,
2013-07-26 15:46:00,83.8,62.6,30.03,NNW,342,5.0,5.0,49,0.00,,BKN039,0.00,VWS V14.01,2013-07-26 19:46:00,
2013-07-26 15:51:00,83.8,62.6,30.03,NNW,342,5.0,5.0,49,0.00,,BKN039,0.00,VWS V14.01,2013-07-26 19:51:00,
2013-07-26 15:56:00,83.8,62.6,30.03,NNW,342,5.0,5.0,49,0.00,,BKN039,0.00,VWS V14.01,2013-07-26 19:56:00,
2013-07-26 16:01:00,83.8,62.6,30.03,NNW,342,5.0,5.0,49,0.00,,BKN039,0.00,VWS V14.01,2013-07-26 20:01:00,
2013-07-26 16:07:00,83.8,62.6,30.03,NNW,342,5.0,5.0,49,0.00,,BKN039,0.00,VWS V14.01,2013-07-26 20:07:00,
2013-07-26 16:12:00,83.8,62.6,30.03,NNW,342,5.0,5.0,49,0.00,,BKN039,0.00,VWS V14.01,2013-07-26 20:12:00,
2013-07-26 16:17:00,83.8,62.6,30.03,NNW,342,5.0,5.0,49,0.00,,BKN039,0.00,VWS V14.01,2013-07-26 20:17:00,
2013-07-26 16:22:00,83.8,62.6,30.03,NNW,342,5.0,5.0,49,0.00,,BKN039,0.00,VWS V14.01,2013-07-26 20:22:00,
2013-07-26 16:27:00,83.8,62.6,30.03,NNW,342,5.0,5.0,49,0.00,,BKN039,0.00,VWS V14.01,2013-07-26 20:27:00,
2013-07-26 16:32:00,83.8,62.6,30.03,NNW,342,5.0,5.0,49,0.00,,BKN039,0.00,VWS V14.01,2013-07-26 20:32:00,
2013-07-26 16:37:00,83.8,62.6,30.03,NNW,342,5.0,5.0,49,0.00,,BKN039,0.00,VWS V14.01,2013-07-26 20:37:00,
2013-07-26 16:42:00,83.8,62.6,30.03,NNW,342,5.0,5.0,49,0.00,,BKN039,0.00,VWS V14.01,2013-07-26 20:42:00,
2013-07-26 16:47:00,83.8,62.6,30.03,NNW,342,5.0,5.0,49,0.00,,BKN039,0.00,VWS V14.01,2013-07-26 20:47:00,
2013-07-26 16:52:00,83.8,62.6,30.03,NNW,342,5.0,5.0,49,0.00,,BKN039,0.00,VWS V14.01,2013-07-26 20:52:00,
2013-07-26 16:57:00,83.8,62.6,30.03,NNW,342,5.0,5.0,49,0.00,,BKN039,0.00,VWS V14.01,2013-07-26 20:57:00,
2013-07-26 17:02:00,83.8,62.6,30.03,NNW,342,5.0,5.0,49,0.00,,BKN039,0.00,VWS V14.01,2013-07-26 21:02:00,
2013-07-26 17:07:00,83.8,62.6,30.03,NNW,342,5.0,5.0,49,0.00,,BKN039,0.00,VWS V14.01,2013-07-26 21:07:00,
2013-07-26 17:12:00,83.8,62.6,30.03,NNW,342,5.0,5.0,49,0.00,,BKN039,0.00,VWS V14.01,2013-07-26 21:12:00,
2013-07-26 17:17:00,83.8,62.6,30.03,NNW,342,5.0,5.0,49,0.00,,BKN039,0.00,VWS V14.01,2013-07-26 21:17:00,
2013-07-26 17:22:00,83.8,62.6,30.03,NNW,342,5.0,5.0,49,0.00,,BKN039,0.00,VWS V14.01,2013-07-26 21:22:00,
2013-07-26 17:27:00,83.8,62.6,30.03,NNW,342,5.0,5.0,49,0.00,,BKN039,0.00,VWS V14.01,2013-07-26 21:27:00,
2013-07-26 17:32:00,83.8,62.6,30.03,NNW,342,5.0,5.0,49,0.00,,BKN039,0.00,VWS V14.01,2013-07-26 21:32:00,
2013-07-26 17:37:00,83.8,62.6,30.03,NNW,342,5.0,5.0,49,0.00,,BKN039,0.00,VWS V14.01,2013-07-26 21:37:00,
2013-07-26 17:42:00,83.8,62.6,30.03,NNW,342,5.0,5.0,49,0.00,,BKN039,0.00,VWS V14.01,2013-07-26 21:42:00,
2013-07-26 17:47:00,83.8,62.6,30.03,NNW,342,5.0,5.0,49,0.00,,BKN039,0.00,VWS V14.01,2013-07-26 21:47:00,
2013-07-26 17:52:00,83.8,62.6,30.03,NNW,342,5.0,5.0,49,0.00,,BKN039,0.00,VWS V14.01,2013-07-26 21:52:00,
2013-07-26 17:57:00,83.8,62.6,30.03,NNW,342,5.0,5.0,49,0.00,,BKN039,0.00,VWS V14.01,2013-07-26 21:57:00,
2013-07-26 18:02:00,83.8,62.6,30.03,NNW,342,5.0,5.0,49,0.00,,BKN039,0.00,VWS V14.01,2013-07-26 22:02:00,
2013-07-26 18:07:00,83.8,62.6,30.03,NNW,342,5.0,5.0,49,0.00,,BKN039,0.00,VWS V14.01,2013-07-26 22:07:00,
2013-07-26 18:12:00,83.8,62.6,30.03,NNW,342,5.0,5.0,49,0.00,,BKN039,0.00,VWS V14.01,2013-07-26 22:12:00,
2013-07-26 18:17:00,83.8,62.6,30.03,NNW,342,5.0,5.0,49,0.00,,BKN039,0.00,VWS V14.01,2013-07-26 22:17:00,
2013-07-26 18:22:00,83.8,62.6,30.03,NNW,342,5.0,5.0,49,0.00,,BKN039,0.00,VWS V14.01,2013-07-26 22:22:00,
2013-07-26 18:27:00,83.8,62.6,30.03,NNW,342,5.0,5.0,49,0.00,,BKN039,0.00,VWS V14.01,2013-07-26 22:27:00,
2013-07-26 18:32:00,83.8,62.6,30.03,NNW,342,5.0,5.0,49,0.00,,BKN039,0.00,VWS V14.01,2013-07-26 22:32:00,
2013-07-26 18:37:00,83.8,62.6,30.03,NNW,342,5.0,5.0,49,0.00,,BKN039,0.00,VWS V14.01,2013-07-26 22:37:00,
2013-07-26 18:42:00,83.8,62.6,30.03,NNW,342,5.0,5.0,49,0.00,,BKN039,0.00,VWS V14.01,2013-07-26 22:42:00,
2013-07-26 18:47:00,83.8,62.6,30.03,NNW,342,5.0,5.0,49,0.00,,BKN039,0.00,VWS V14.01,2013-07-26 22:47:00,
2013-07-26 18:52:00,83.8,62.6,30.03,NNW,342,5.0,5.0,49,0.00,,BKN039,0.00,VWS V14.01,2013-07-26 22:52:00,
2013-07-26 18:57:00,83.8,62.6,30.03,NNW,342,5.0,5.0,49,0.00,,BKN039,0.00,VWS V14.01,2013-07-26 22:57:00,
2013-07-26 19:02:00,83.8,62.6,30.03,NNW,342,5.0,5.0,49,0.00,,BKN039,0.00,VWS V14.01,2013-07-26 23:02:00,
2013-07-26 19:07:00,83.8,62.6,30.03,NNW,342,5.0,5.0,49,0.00,,BKN039,0.00,VWS V14.01,2013-07-26 23:07:00,
2013-07-26 19:12:00,83.8,62.6,30.03,NNW,342,5.0,5.0,49,0.00,,BKN039,0.00,VWS V14.01,2013-07-26 23:12:00,
2013-07-26 19:17:00,83.8,62.6,30.03,NNW,342,5.0,5.0,49,0.00,,BKN039,0.00,VWS V14.01,2013-07-26 23:17:00,
2013-07-26 19:22:00,83.8,62.6,30.03,NNW,342,5.0,5.0,49,0.00,,BKN039,0.00,VWS V14.01,2013-07-26 23:22:00,
2013-07-26 19:27:00,83.8,62.6,30.03,NNW,342,5.0,5.0,49,0.00,,BKN039,0.00,VWS V14.01,2013-07-26 23:27:00,
2013-07-26 19:33:00,83.8,62.6,30.03,NNW,342,5.0,5.0,49,0.00,,BKN039,0.00,VWS V14.01,2013-07-26 23:33:00,
2013-07-26 19:38:00,83.8,62.6,30.03,NNW,342,5.0,5.0,49,0.00,,BKN039,0.00,VWS V14.01,2013-07-26 23:38:00,
2013-07-26 19:43:00,83.8,62.6,30.03,NNW,342,5.0,5.0,49,0.00,,BKN039,0.00,VWS V14.01,2013-07-26 23:43:00,
2013-07-26 19:48:00,83.8,62.6,30.03,NNW,342,5.0,5.0,49,0.00,,BKN039,0.00,VWS V14.01,2013-07-26 23:48:00,
2013-07-26 19:53:00,83.8,62.6,30.03,NNW,342,5.0,5.0,49,0.00,,BKN039,0.00,VWS V14.01,2013-07-26 23:53:00,
2013-07-26 19:58:00,83.8,62.6,30.03,NNW,342,5.0,5.0,49,0.00,,BKN039,0.00,VWS V14.01,2013-07-26 23:58:00,
2013-07-26 20:00:00,76.2,64.9,30.03,South,180,0.0,1.0,68,0.00,,BKN039,0.00,VWS V14.01,2013-07-27 00:00:00,
2013-07-26 20:03:00,83.8,62.6,30.03,NNW,342,5.0,5.0,49,0.00,,BKN039,0.00,VWS V14.01,2013-07-27 00:03:00,
2013-07-26 20:08:00,83.8,62.6,30.03,NNW,342,5.0,5.0,49,0.00,,BKN039,0.00,VWS V14.01,2013-07-27 00:08:00,
2013-07-26 20:13:00,83.8,62.6,30.03,NNW,342,5.0,5.0,49,0.00,,BKN039,0.00,VWS V14.01,2013-07-27 00:13:00,
2013-07-26 20:18:00,83.8,62.6,30.03,NNW,342,5.0,5.0,49,0.00,,BKN039,0.00,VWS V14.01,2013-07-27 00:18:00,
2013-07-26 20:23:00,83.8,62.6,30.03,NNW,342,5.0,5.0,49,0.00,,BKN039,0.00,VWS V14.01,2013-07-27 00:23:00,
2013-07-26 20:28:00,83.8,62.6,30.03,NNW,342,5.0,5.0,49,0.00,,BKN039,0.00,VWS V14.01,2013-07-27 00:28:00,
2013-07-26 20:33:00,83.8,62.6,30.03,NNW,342,5.0,5.0,49,0.00,,BKN039,0.00,VWS V14.01,2013-07-27 00:33:00,
2013-07-26 20:38:00,83.8,62.6,30.03,NNW,342,5.0,5.0,49,0.00,,BKN039,0.00,VWS V14.01,2013-07-27 00:38:00,
2013-07-26 20:43:00,83.8,62.6,30.03,NNW,342,5.0,5.0,49,0.00,,BKN039,0.00,VWS V14.01,2013-07-27 00:43:00,
2013-07-26 20:48:00,71.1,63.2,30.03,South,181,0.0,0.0,76,0.00,,BKN039,0.00,VWS V14.01,2013-07-27 00:48:00,
2013-07-26 20:53:00,70.6,62.7,30.04,South,181,0.0,0.0,76,0.00,,CLR,0.00,VWS V14.01,2013-07-27 00:53:00,
2013-07-26 20:58:00,70.2,62.7,30.04,South,181,0.0,0.0,77,0.00,,CLR,0.00,VWS V14.01,2013-07-27 00:58:00,
2013-07-26 21:03:00,69.8,62.3,30.04,South,181,0.0,0.0,77,0.00,,CLR,0.00,VWS V14.01,2013-07-27 01:03:00,
2013-07-26 21:08:00,69.6,62.4,30.04,South,181,0.0,0.0,78,0.00,,CLR,0.00,VWS V14.01,2013-07-27 01:08:00,
2013-07-26 21:13:00,69.4,62.2,30.04,South,181,0.0,0.0,78,0.00,,CLR,0.00,VWS V14.01,2013-07-27 01:13:00,
2013-07-26 21:18:00,69.2,62.4,30.04,South,181,0.0,0.0,79,0.00,,CLR,0.00,VWS V14.01,2013-07-27 01:18:00,
2013-07-26 21:23:00,68.9,62.1,30.04,South,181,0.0,0.0,79,0.00,,CLR,0.00,VWS V14.01,2013-07-27 01:23:00,
2013-07-26 21:28:00,68.7,62.6,30.05,South,181,0.0,0.0,81,0.00,,CLR,0.00,VWS V14.01,2013-07-27 01:28:00,
2013-07-26 21:33:00,68.5,62.8,30.05,South,181,0.0,0.0,82,0.00,,CLR,0.00,VWS V14.01,2013-07-27 01:33:00,
2013-07-26 21:38:00,68.2,62.5,30.05,South,181,0.0,0.0,82,0.00,,CLR,0.00,VWS V14.01,2013-07-27 01:38:00,
2013-07-26 21:43:00,67.8,62.5,30.05,South,181,0.0,0.0,83,0.00,,CLR,0.00,VWS V14.01,2013-07-27 01:43:00,
2013-07-26 21:48:00,67.4,62.1,30.06,South,180,0.0,0.0,83,0.00,,CLR,0.00,VWS V14.01,2013-07-27 01:48:00,
2013-07-26 21:53:00,67.3,62.0,30.06,South,178,0.0,0.0,83,0.00,,CLR,0.00,VWS V14.01,2013-07-27 01:53:00,
2013-07-26 21:58:00,67.4,62.1,30.06,SE,140,0.0,3.0,83,0.00,,CLR,0.00,VWS V14.01,2013-07-27 01:58:00,
2013-07-26 22:03:00,67.5,62.2,30.06,SE,140,0.0,0.0,83,0.00,,CLR,0.00,VWS V14.01,2013-07-27 02:03:00,
2013-07-26 22:08:00,67.6,62.6,30.06,SE,140,0.0,1.0,84,0.00,,CLR,0.00,VWS V14.01,2013-07-27 02:08:00,
2013-07-26 22:13:00,67.7,63.0,30.06,SE,140,0.0,1.0,85,0.00,,CLR,0.00,VWS V14.01,2013-07-27 02:13:00,
2013-07-26 22:18:00,67.7,63.0,30.06,SE,140,0.0,1.0,85,0.00,,CLR,0.00,VWS V14.01,2013-07-27 02:18:00,
2013-07-26 22:23:00,67.6,63.3,30.06,SE,140,0.0,1.0,86,0.00,,CLR,0.00,VWS V14.01,2013-07-27 02:23:00,
2013-07-26 22:28:00,67.4,63.1,30.06,SE,139,0.0,1.0,86,0.00,,CLR,0.00,VWS V14.01,2013-07-27 02:28:00,
2013-07-26 22:33:00,67.3,63.0,30.06,SE,140,0.0,0.0,86,0.00,,CLR,0.00,VWS V14.01,2013-07-27 02:33:00,
2013-07-26 22:38:00,67.2,63.2,30.06,SE,140,0.0,0.0,87,0.00,,CLR,0.00,VWS V14.01,2013-07-27 02:38:00,
2013-07-26 22:43:00,67.0,63.0,30.06,SE,140,0.0,0.0,87,0.00,,CLR,0.00,VWS V14.01,2013-07-27 02:43:00,
2013-07-26 22:48:00,67.0,63.3,30.06,SE,140,0.0,0.0,88,0.00,,CLR,0.00,VWS V14.01,2013-07-27 02:48:00,
2013-07-26 22:53:00,66.9,63.2,30.06,SE,140,0.0,1.0,88,0.00,,CLR,0.00,VWS V14.01,2013-07-27 02:53:00,
2013-07-26 22:58:00,66.8,63.1,30.06,SE,138,0.0,1.0,88,0.00,,CLR,0.00,VWS V14.01,2013-07-27 02:58:00,
2013-07-26 23:03:00,66.8,63.5,30.06,SE,138,0.0,0.0,89,0.00,,CLR,0.00,VWS V14.01,2013-07-27 03:03:00,
2013-07-26 23:09:00,66.8,63.5,30.06,SE,138,0.0,0.0,89,0.00,,CLR,0.00,VWS V14.01,2013-07-27 03:09:00,
2013-07-26 23:14:00,66.8,63.5,30.06,SE,138,0.0,1.0,89,0.00,,CLR,0.00,VWS V14.01,2013-07-27 03:14:00,
2013-07-26 23:19:00,66.8,63.5,30.07,SE,138,0.0,1.0,89,0.00,,CLR,0.00,VWS V14.01,2013-07-27 03:19:00,
2013-07-26 23:24:00,66.8,63.8,30.07,SE,138,0.0,1.0,90,0.00,,CLR,0.00,VWS V14.01,2013-07-27 03:24:00,
2013-07-26 23:29:00,66.7,63.7,30.07,SE,138,0.0,1.0,90,0.00,,CLR,0.00,VWS V14.01,2013-07-27 03:29:00,
2013-07-26 23:34:00,66.8,63.8,30.07,SE,138,0.0,0.0,90,0.00,,CLR,0.00,VWS V14.01,2013-07-27 03:34:00,
2013-07-26 23:39:00,66.8,63.8,30.07,SE,133,0.0,2.0,90,0.00,,CLR,0.00,VWS V14.01,2013-07-27 03:39:00,
2013-07-26 23:44:00,66.7,63.7,30.07,ESE,106,0.0,2.0,90,0.00,,CLR,0.00,VWS V14.01,2013-07-27 03:44:00,
2013-07-26 23:49:00,66.7,64.0,30.06,ESE,106,0.0,2.0,91,0.00,,CLR,0.00,VWS V14.01,2013-07-27 03:49:00,
2013-07-26 23:54:00,66.7,64.0,30.06,ESE,106,0.0,2.0,91,0.00,,CLR,0.00,VWS V14.01,2013-07-27 03:54:00,
2013-07-26 23:59:00,66.7,64.0,30.06,ESE,105,0.0,2.0,91,0.00,,CLR,0.00,VWS V14.01,2013-07-27 03:59:00,